When you browse on this site, cookies collect data to enhance your experience and personalize the content and advertising you see.
Visit our Privacy Policy to learn more. By continuing to use the site, you agree to this use of cookies and data.
  • In Deutschland
  • Länderverzeichnis
  • Für 7 Tage
  • Wassertemperatur
  • Wetterkarte
  • Widgets
  • user-avatar
    Anmelden

    Stündliche Wetter Giumri

    Heute, 15 Oktober, Dienstag

    Zeit Temperatur Niederschläge Wind Luftdruck Luftfeuchtigkeit
    00:00 +11°C° 0 mm 1 m/S 640 mmHg 36%
    01:00 +9°C° 0 mm 0 m/S 640 mmHg 36%
    02:00 +9°C° 0 mm 0 m/S 639 mmHg 37%
    03:00 +8°C° 0 mm 0 m/S 639 mmHg 38%
    04:00 +8°C° 0 mm 0 m/S 639 mmHg 37%
    05:00 +8°C° 0 mm 0 m/S 639 mmHg 36%
    06:00 +8°C° 0 mm 1 m/S 639 mmHg 35%
    07:00 +11°C° 0 mm 1 m/S 639 mmHg 31%
    08:00 +13°C° 0 mm 1 m/S 640 mmHg 27%
    09:00 +15°C° 0 mm 1 m/S 641 mmHg 24%
    10:00 +18°C° 0 mm 1 m/S 642 mmHg 22%
    11:00 +18°C° 0 mm 2 m/S 642 mmHg 20%
    12:00 +20°C° 0 mm 2 m/S 642 mmHg 18%
    13:00 +21°C° 0 mm 2 m/S 642 mmHg 17%
    14:00 +21°C° 0 mm 2 m/S 641 mmHg 16%
    15:00 +23°C° 0 mm 2 m/S 641 mmHg 15%
    16:00 +20°C° 0 mm 1 m/S 640 mmHg 18%
    17:00 +18°C° 0 mm 1 m/S 639 mmHg 21%
    18:00 +14°C° 0 mm 0 m/S 639 mmHg 24%
    19:00 +13°C° 0 mm 0 m/S 639 mmHg 25%
    20:00 +14°C° 0 mm 1 m/S 638 mmHg 25%
    21:00 +13°C° 0 mm 1 m/S 638 mmHg 26%
    22:00 +13°C° 0 mm 1 m/S 638 mmHg 27%
    23:00 +12°C° 0 mm 1 m/S 638 mmHg 27%

    Morgen, 16 Oktober, Mittwoch

    Zeit Temperatur Niederschläge Wind Luftdruck Luftfeuchtigkeit
    00:00 +12°C° 0 mm 1 m/S 638 mmHg 28%
    01:00 +11°C° 0 mm 1 m/S 638 mmHg 29%
    02:00 +11°C° 0 mm 1 m/S 638 mmHg 30%
    03:00 +11°C° 0 mm 1 m/S 637 mmHg 31%
    04:00 +10°C° 0 mm 1 m/S 637 mmHg 31%
    05:00 +10°C° 0 mm 1 m/S 637 mmHg 32%
    06:00 +10°C° 0 mm 1 m/S 637 mmHg 33%
    07:00 +12°C° 0 mm 1 m/S 638 mmHg 29%
    08:00 +15°C° 0 mm 1 m/S 639 mmHg 26%
    09:00 +18°C° 0 mm 1 m/S 640 mmHg 22%
    10:00 +20°C° 0 mm 1 m/S 640 mmHg 20%
    11:00 +21°C° 0 mm 1 m/S 640 mmHg 18%
    12:00 +23°C° 0 mm 2 m/S 640 mmHg 16%
    13:00 +23°C° 0 mm 2 m/S 640 mmHg 15%
    14:00 +23°C° 0 mm 2 m/S 640 mmHg 14%
    15:00 +24°C° 0 mm 2 m/S 640 mmHg 14%
    16:00 +20°C° 0 mm 2 m/S 639 mmHg 17%
    17:00 +19°C° 0 mm 1 m/S 638 mmHg 21%
    18:00 +16°C° 0 mm 1 m/S 638 mmHg 24%
    19:00 +15°C° 0 mm 1 m/S 638 mmHg 27%
    20:00 +14°C° 0 mm 1 m/S 638 mmHg 30%
    21:00 +13°C° 0 mm 1 m/S 638 mmHg 33%
    22:00 +13°C° 0 mm 1 m/S 637 mmHg 34%
    23:00 +13°C° 0 mm 1 m/S 637 mmHg 35%

    übermorgen, 17 Oktober, Donnerstag

    Zeit Temperatur Niederschläge Wind Luftdruck Luftfeuchtigkeit
    00:00 +12°C° 0 mm 1 m/S 637 mmHg 36%
    01:00 +12°C° 0 mm 1 m/S 637 mmHg 36%
    02:00 +12°C° 0 mm 1 m/S 637 mmHg 37%
    03:00 +11°C° 0 mm 1 m/S 637 mmHg 37%
    04:00 +11°C° 0 mm 1 m/S 637 mmHg 37%
    05:00 +11°C° 0 mm 1 m/S 637 mmHg 37%
    06:00 +11°C° 0 mm 1 m/S 637 mmHg 37%
    07:00 +13°C° 0 mm 1 m/S 638 mmHg 33%
    08:00 +15°C° 0 mm 1 m/S 639 mmHg 29%
    09:00 +18°C° 0 mm 1 m/S 640 mmHg 25%
    10:00 +20°C° 0 mm 1 m/S 640 mmHg 23%
    11:00 +20°C° 0 mm 2 m/S 640 mmHg 20%
    12:00 +23°C° 0 mm 2 m/S 640 mmHg 18%
    13:00 +23°C° 0 mm 2 m/S 640 mmHg 17%
    14:00 +23°C° 0 mm 2 m/S 640 mmHg 17%
    15:00 +24°C° 0 mm 2 m/S 640 mmHg 17%
    16:00 +21°C° 0 mm 2 m/S 639 mmHg 21%
    17:00 +19°C° 0 mm 1 m/S 638 mmHg 25%
    18:00 +16°C° 0 mm 1 m/S 638 mmHg 30%
    19:00 +15°C° 0 mm 1 m/S 638 mmHg 32%
    20:00 +15°C° 0 mm 1 m/S 638 mmHg 34%
    21:00 +14°C° 0 mm 1 m/S 638 mmHg 36%
    22:00 +13°C° 0 mm 1 m/S 637 mmHg 35%
    23:00 +13°C° 0 mm 1 m/S 637 mmHg 35%

    18 Oktober, Freitag

    Zeit Temperatur Niederschläge Wind Luftdruck Luftfeuchtigkeit
    00:00 +13°C° 0 mm 1 m/S 637 mmHg 34%
    01:00 +12°C° 0 mm 1 m/S 637 mmHg 33%
    02:00 +12°C° 0 mm 1 m/S 637 mmHg 32%
    03:00 +12°C° 0 mm 1 m/S 636 mmHg 31%
    04:00 +12°C° 0 mm 1 m/S 636 mmHg 32%
    05:00 +11°C° 0 mm 1 m/S 636 mmHg 32%
    06:00 +10°C° 0 mm 0 m/S 636 mmHg 32%
    07:00 +13°C° 0 mm 1 m/S 637 mmHg 30%
    08:00 +16°C° 0 mm 1 m/S 637 mmHg 27%
    09:00 +19°C° 0 mm 1 m/S 638 mmHg 24%
    10:00 +20°C° 0 mm 1 m/S 638 mmHg 24%
    11:00 +20°C° 0 mm 2 m/S 638 mmHg 23%
    12:00 +23°C° 0 mm 2 m/S 639 mmHg 23%
    13:00 +23°C° 0 mm 2 m/S 638 mmHg 24%
    14:00 +22°C° 0 mm 3 m/S 638 mmHg 25%
    15:00 +24°C° 0 mm 3 m/S 638 mmHg 27%
    16:00 +20°C° 0.1 mm 3 m/S 637 mmHg 36%
    17:00 +18°C° 0.1 mm 2 m/S 637 mmHg 45%
    18:00 +15°C° 0.1 mm 2 m/S 636 mmHg 55%
    19:00 +15°C° 0 mm 2 m/S 636 mmHg 55%
    20:00 +14°C° 0 mm 1 m/S 636 mmHg 55%
    21:00 +14°C° 0 mm 1 m/S 636 mmHg 55%
    22:00 +14°C° 0 mm 1 m/S 636 mmHg 55%
    23:00 +13°C° 0 mm 1 m/S 636 mmHg 55%

    19 Oktober, Samstag

    Zeit Temperatur Niederschläge Wind Luftdruck Luftfeuchtigkeit
    00:00 +13°C° 0 mm 1 m/S 636 mmHg 55%
    01:00 +13°C° 0 mm 1 m/S 636 mmHg 55%
    02:00 +13°C° 0 mm 1 m/S 636 mmHg 55%
    03:00 +12°C° 0 mm 1 m/S 635 mmHg 55%
    04:00 +12°C° 0 mm 1 m/S 635 mmHg 56%
    05:00 +12°C° 0 mm 1 m/S 636 mmHg 56%
    06:00 +12°C° 0 mm 1 m/S 636 mmHg 56%
    07:00 +14°C° 0 mm 1 m/S 636 mmHg 51%
    08:00 +15°C° 0 mm 0 m/S 637 mmHg 46%
    09:00 +16°C° 0 mm 0 m/S 638 mmHg 40%
    10:00 +20°C° 0 mm 1 m/S 638 mmHg 38%
    11:00 +21°C° 0 mm 1 m/S 638 mmHg 35%
    12:00 +21°C° 0 mm 2 m/S 638 mmHg 33%
    13:00 +21°C° 0 mm 2 m/S 638 mmHg 33%
    14:00 +21°C° 0 mm 2 m/S 638 mmHg 34%
    15:00 +21°C° 0 mm 2 m/S 638 mmHg 34%
    16:00 +19°C° 0.5 mm 2 m/S 637 mmHg 48%
    17:00 +17°C° 0.5 mm 2 m/S 637 mmHg 61%
    18:00 +14°C° 0.5 mm 2 m/S 636 mmHg 75%
    19:00 +14°C° 1.4 mm 2 m/S 636 mmHg 78%
    20:00 +14°C° 1.4 mm 1 m/S 636 mmHg 81%
    21:00 +13°C° 1.4 mm 1 m/S 637 mmHg 84%
    22:00 +13°C° 0.7 mm 1 m/S 637 mmHg 83%
    23:00 +13°C° 0.7 mm 1 m/S 637 mmHg 83%

    20 Oktober, Sonntag

    Zeit Temperatur Niederschläge Wind Luftdruck Luftfeuchtigkeit
    00:00 +13°C° 0.7 mm 1 m/S 637 mmHg 82%
    01:00 +13°C° 0 mm 1 m/S 637 mmHg 82%
    02:00 +12°C° 0 mm 1 m/S 636 mmHg 83%
    03:00 +12°C° 0 mm 1 m/S 636 mmHg 83%
    04:00 +12°C° 0 mm 1 m/S 636 mmHg 84%
    05:00 +11°C° 0 mm 1 m/S 636 mmHg 85%
    06:00 +11°C° 0 mm 1 m/S 636 mmHg 86%
    07:00 +12°C° 0 mm 1 m/S 636 mmHg 79%
    08:00 +14°C° 0 mm 1 m/S 637 mmHg 73%
    09:00 +15°C° 0 mm 1 m/S 637 mmHg 67%
    10:00 +16°C° 0.2 mm 1 m/S 637 mmHg 61%
    11:00 +18°C° 0.2 mm 2 m/S 638 mmHg 55%
    12:00 +19°C° 0.2 mm 2 m/S 638 mmHg 49%
    13:00 +19°C° 0.4 mm 2 m/S 638 mmHg 48%
    14:00 +19°C° 0.4 mm 2 m/S 637 mmHg 48%
    15:00 +19°C° 0.4 mm 2 m/S 637 mmHg 47%
    16:00 +18°C° 0.3 mm 2 m/S 637 mmHg 55%
    17:00 +16°C° 0.3 mm 2 m/S 637 mmHg 62%
    18:00 +15°C° 0.3 mm 2 m/S 636 mmHg 70%
    19:00 +14°C° 0.3 mm 2 m/S 636 mmHg 73%
    20:00 +14°C° 0.3 mm 2 m/S 637 mmHg 76%
    21:00 +13°C° 0.3 mm 2 m/S 637 mmHg 79%
    22:00 +13°C° 0.1 mm 2 m/S 637 mmHg 80%
    23:00 +13°C° 0.1 mm 2 m/S 637 mmHg 82%
    Mehr zeigen